Race Analysis

 :: S58

Ver o tópico anterior Ver o tópico seguinte Ir em baixo

Race Analysis

Mensagem por Paulo Coutinho em Qua Abr 26, 2017 7:38 pm

Oesterreichring (Austria), Season 58


Lap Lap time Pos Tyres Weather Temp (°) Hum (%) Events
0 - 3 Soft Partially Cloudy 10 15 -
1 1:33.815 3 Soft Partially Cloudy 10 15 -
2 1:29.215 3 Soft Partially Cloudy 10 15 -
3 1:28.780 3 Soft Partially Cloudy 10 15 -
4 1:28.834 3 Soft Partially Cloudy 10 15 -
5 1:28.666 3 Soft Partially Cloudy 10 15 -
6 1:28.484 3 Soft Partially Cloudy 10 15 -
7 1:28.550 3 Soft Partially Cloudy 10 15 -
8 1:28.243 3 Soft Partially Cloudy 11 15 -
9 1:28.143 3 Soft Partially Cloudy 12 15 -
10 1:28.224 3 Soft Partially Cloudy 12 15 -
11 1:28.218 3 Soft Partially Cloudy 12 15 -
12 1:28.053 3 Soft Partially Cloudy 12 15 -
13 1:28.183 2 Soft Partially Cloudy 12 15 -
14 1:27.935 2 Soft Partially Cloudy 11 15 -
15 1:27.839 2 Soft Partially Cloudy 10 15 -
16 1:27.530 2 Soft Partially Cloudy 10 15 -
17 1:27.544 2 Soft Partially Cloudy 10 15 -
18 1:27.547 1 Soft Partially Cloudy 10 15 -
19 1:38.575 2 Soft Partially Cloudy 10 15 Pit
20 2:00.374 4 Soft Partially Cloudy 10 15 -
21 1:29.072 3 Soft Partially Cloudy 11 15 -
22 1:29.028 3 Soft Partially Cloudy 11 15 -
23 1:28.541 3 Soft Partially Cloudy 11 15 -
24 1:28.377 3 Soft Partially Cloudy 11 15 -
25 1:28.371 3 Soft Partially Cloudy 11 15 -
26 1:28.598 2 Soft Partially Cloudy 11 14 -
27 1:28.232 2 Soft Partially Cloudy 11 14 -
28 1:35.293 4 Soft Partially Cloudy 11 14 Driver mistake
29 1:28.132 4 Soft Partially Cloudy 11 14 -
30 1:27.998 4 Soft Partially Cloudy 11 14 -
31 1:28.340 4 Soft Partially Cloudy 11 14 -
32 1:27.113 4 Soft Partially Cloudy 11 14 -
33 1:26.895 3 Soft Partially Cloudy 11 14 -
34 1:26.891 3 Soft Partially Cloudy 11 14 -
35 1:27.269 3 Soft Partially Cloudy 11 14 -
36 1:26.877 2 Soft Partially Cloudy 11 14 -
37 1:26.825 2 Soft Partially Cloudy 11 14 -
38 1:27.790 2 Soft Partially Cloudy 11 14 -
39 1:38.655 2 Soft Partially Cloudy 11 14 Pit
40 2:02.107 4 Soft Partially Cloudy 11 14 -
41 1:28.346 3 Soft Partially Cloudy 11 14 -
42 1:28.239 3 Soft Partially Cloudy 10 13 -
43 1:27.727 3 Soft Partially Cloudy 9 13 -
44 1:27.663 3 Soft Partially Cloudy 8 12 -
45 1:27.230 3 Soft Partially Cloudy 7 12 -
46 1:28.287 3 Soft Partially Cloudy 6 12 -
47 1:27.733 3 Soft Partially Cloudy 6 12 -
48 1:27.656 3 Soft Partially Cloudy 6 12 -
49 1:27.735 3 Soft Partially Cloudy 7 12 -
50 1:27.515 3 Soft Partially Cloudy 8 12 -
51 1:27.661 2 Soft Partially Cloudy 9 12 -
52 1:27.515 2 Soft Partially Cloudy 9 12 -


Risks used:
Overtake Defend Clear & dry Clear & wet Malfunct
50 0 25 0 0

Setup used:
Front wing Rear wing Engine Brakes Gear Suspension
421 451 956 338 712 776

Cha Eng FWing RWing Underb Sidep Cool Gear Bra Susp Elec
Car parts level: 6 5 6 6 7 7 7 5 7 6 7
Car parts wear (at the start) (%): 30 33 63 58 61 22 29 60 0 52 20
Car parts wear (at the finish) (%): 43 68 79 77 75 34 42 76 24 65 28

Start fuel (liters): 79

Pit Pitstop reason Tyres condition (%) Fuel left (%) Refilled to (liters) Pit time (sec)
Stop 1 (Lap 19): No more fuel was left 20 1 84 liters 20.422
Stop 2 (Lap 39): No more fuel was left 16 0 63 liters 22.696

Tyres condition after finish (%): 48

Fuel left in the car after finish (liters): 9

Driver energy
98% 64%

_________________
Paulo Coutinho
avatar
Paulo Coutinho

Mensagens : 1715
Data de inscrição : 31/03/2015
Idade : 44

Ver perfil do usuário

Voltar ao Topo Ir em baixo

Re: Race Analysis

Mensagem por Gabriel Miranda em Ter Maio 23, 2017 11:34 am

Oesterreichring (Austria), Época 58


Volta Tempo volta Pos Pneus Tempo Temp (°) Hum (%) Ocorrências
0 - 20 Médios Parcial/nublado 10 15 -
1 1:43.932 26 Médios Parcial/nublado 10 15 -
2 1:32.316 26 Médios Parcial/nublado 10 15 -
3 1:31.882 26 Médios Parcial/nublado 10 15 -
4 1:32.006 26 Médios Parcial/nublado 10 15 -
5 1:32.132 26 Médios Parcial/nublado 10 15 -
6 1:32.117 26 Médios Parcial/nublado 10 15 -
7 1:32.369 26 Médios Parcial/nublado 10 15 -
8 1:32.308 26 Médios Parcial/nublado 11 15 -
9 1:32.055 26 Médios Parcial/nublado 12 15 -
10 1:31.428 26 Médios Parcial/nublado 12 15 -
11 1:31.914 26 Médios Parcial/nublado 12 15 -
12 1:31.385 26 Médios Parcial/nublado 12 15 -
13 1:31.958 27 Médios Parcial/nublado 12 15 -
14 1:31.192 26 Médios Parcial/nublado 11 15 -
15 1:31.100 23 Médios Parcial/nublado 10 15 -
16 1:31.695 22 Médios Parcial/nublado 10 15 -
17 1:31.376 22 Médios Parcial/nublado 10 15 -
18 1:31.425 19 Médios Parcial/nublado 10 15 -
19 1:31.114 16 Médios Parcial/nublado 10 15 -
20 1:30.653 15 Médios Parcial/nublado 10 15 -
21 1:30.361 15 Médios Parcial/nublado 11 15 -
22 1:31.007 17 Médios Parcial/nublado 11 15 -
23 1:29.576 16 Médios Parcial/nublado 11 15 -
24 1:29.032 16 Médios Parcial/nublado 11 15 -
25 1:29.057 16 Médios Parcial/nublado 11 15 -
26 1:39.882 18 Médios Parcial/nublado 11 14 Pit
27 2:13.705 26 Médios Parcial/nublado 11 14 -
28 1:32.131 26 Médios Parcial/nublado 11 14 -
29 1:31.443 26 Médios Parcial/nublado 11 14 -
30 1:31.234 26 Médios Parcial/nublado 11 14 -
31 1:31.491 26 Médios Parcial/nublado 11 14 -
32 1:31.687 26 Médios Parcial/nublado 11 14 -
33 1:31.328 25 Médios Parcial/nublado 11 14 -
34 1:31.010 25 Médios Parcial/nublado 11 14 -
35 1:31.081 23 Médios Parcial/nublado 11 14 -
36 1:38.771 22 Médios Parcial/nublado 11 14 Erro do Piloto
37 1:30.942 20 Médios Parcial/nublado 11 14 -
38 1:31.127 20 Médios Parcial/nublado 11 14 -
39 1:30.404 20 Médios Parcial/nublado 11 14 -
40 1:30.909 20 Médios Parcial/nublado 11 14 -
41 1:30.854 19 Médios Parcial/nublado 11 14 -
42 1:30.795 19 Médios Parcial/nublado 10 13 -
43 1:30.590 19 Médios Parcial/nublado 9 13 -
44 1:31.072 20 Médios Parcial/nublado 8 12 -
45 1:30.503 20 Médios Parcial/nublado 7 12 -
46 1:30.193 19 Médios Parcial/nublado 6 12 -
47 1:29.582 19 Médios Parcial/nublado 6 12 -
48 1:29.602 19 Médios Parcial/nublado 6 12 -
49 1:29.925 19 Médios Parcial/nublado 7 12 -
50 1:28.968 19 Médios Parcial/nublado 8 12 -
51 1:29.253 19 Médios Parcial/nublado 9 12 -
52 1:29.705 19 Médios Parcial/nublado 9 12 -


Riscos usados:
Ultrapassagem Defesa Pista Livre e Seca Pista Livre e Chuva Avaria
20 20 0 0 0

Afinação usada:
Asa Dianteira Asa Traseira Motor Travões Caixa Suspensão
416 458 824 428 634 703

Cha Mot ADiant ATras Carroç Later Refrig Caixa Trav Susp Elec
Nível das peças: 6 5 6 6 6 6 6 6 5 6 6
Desgaste das Peças (no início) (%): 49 64 45 46 64 42 53 48 74 58 13
Desgaste das Peças (no final) (%): 62 97 61 64 78 54 66 63 96 71 21

Combustível inicíal (litros): 115

Pit Razão da paragem Estado pneus (%) Combust. restante (%) Reabast. até (litros) Tempo da paragem (seg)
Paragem 1 (Volta 26): Não havia mais combustível 22 1 118 litros 30.327
avatar
Gabriel Miranda

Mensagens : 913
Data de inscrição : 29/12/2014
Idade : 44

Ver perfil do usuário

Voltar ao Topo Ir em baixo

Ver o tópico anterior Ver o tópico seguinte Voltar ao Topo

- Tópicos similares

 :: S58

 
Permissão deste fórum:
Você não pode responder aos tópicos neste fórum